Regional Weather Roundup
Issued by NWS Goodland, KS

Home | Current Version | Previous Version | Text Only | Print | Product List | Glossary Off
Versions: 1 2 3 4 5 6 7 8 9 10 11 12 13 14 15 16 17 18 19 20 21 22 23 24 25 26 27 28 29 30 31 32 33 34 35 36 37 38 39 40 41 42 43 44 45 46 47 48 49 50

154
ASUS43 KGLD 300708
RWRGLD

GOODLAND FORECAST AREA HOURLY WEATHER ROUNDUP
NATIONAL WEATHER SERVICE GOODLAND KS
100 AM MDT SAT JUL 30 2016

...OFFICIAL OBSERVATIONS...

CITY           SKY/WX    TMP DP  RH WIND       PRES   REMARKS
GOODLAND KS    CLOUDY    67  61  81 S10       30.06F
HILL CITY KS   CLOUDY    69  66  90 SE7       30.02F
IMPERIAL NEB   CLOUDY    65  61  87 CALM      30.06R
MCCOOK NEB     PTCLDY    68  63  84 E5        30.05R
AKRON CO       CLOUDY    66  60  81 S12       30.11S
BURLINGTON CO  CLOUDY    64  58  80 S15       30.10F
LIMON CO       CLOUDY    64  61  90 S7        30.18F
$$

...UNOFFICIAL OBSERVATIONS...

CITY           SKY/WX    TMP DP  RH WIND       PRES   REMARKS
LENORA KS        N/A     69  32  25 MISG        N/A
NORTON KS      CLEAR     68  63  83 NE6       30.04R
SHARON SPRINGS   N/A     66  63  90 SW5         N/A
KIT CARSON CO    N/A     65  55  70 MISG        N/A
YUMA CO          N/A     67  63  86 SW6         N/A
$$




USA.gov is the U.S. government's official web portal to all federal, state and local government web resources and services.